Luverne, MN

12:58 AM CDT on October 01, 2016 (GMT -0500)
Luverne

Weather History for KLYV - July, 2013

Change the Weather History Date:

Monday, July 1, 2013

  Actual Average (KFSD) Record (KFSD)
Temperature  
Mean Temperature 68 °F 72 °F  
Max Temperature 82 °F 83 °F 97 °F (1948)
Min Temperature 55 °F 61 °F 44 °F (1904)
Degree Days  
Heating Degree Days 0 0  
Month to date heating degree days 0  
Since 1 June heating degree days 51  
Since 1 July heating degree days 0  
Cooling Degree Days 4 7  
Month to date cooling degree days 7  
Year to date cooling degree days 178  
Since 1 June cooling degree days 142  
Growing Degree Days 18 (Base 50)    
Moisture  
Dew Point 50 °F    
Average Humidity 51    
Maximum Humidity 82    
Minimum Humidity 25    
Precipitation  
Precipitation 0.00 in 0.11 in 3.35 in (1992)
Month to date precipitation 0.11  
Year to date precipitation 13.36  
Snow  
Snow 0.00 in 0.00 in 0.00 in ()
Month to date snowfall 0.0  
Since 1 June snowfall 0.0  
Since 1 July snowfall 0.0  
Snow Depth -    
Sea Level Pressure  
Sea Level Pressure 30.20 in    
Wind  
Wind Speed 2 mph (NNE)    
Max Wind Speed 9 mph    
Max Gust Speed -    
Visibility 10 miles    
Events      
T = Trace of Precipitation, MM = Missing Value Source: NWS Daily Summary

Daily Weather History Graph

Daily Weather History Graph

Search for Another Location

Airport or City:

Trip Planner

Search our weather history database for the weather conditions in past years. The results will help you decide how hot, cold, wet, or windy it might be!

Date:

Astronomy

Jul. 01, 2013 Rise Set
Actual Time 5:47 AM CDT 9:09 PM CDT
Civil Twilight 5:11 AM CDT 9:45 PM CDT
Nautical Twilight 4:25 AM CDT 10:32 PM CDT
Astronomical Twilight 3:26 AM CDT 11:30 PM CDT
Moon 1:25 AM CDT 3:20 PM CDT
Length of Visible Light 16h 33m
Length of Day
15h 22m
Waning Crescent, 35% of the Moon is Illuminated
Jul 1
Waning Crescent
Jul 8
New
Jul 15
First Quarter
Jul 22
Full
Jul 29
Last Quarter

Hourly Weather History & Observations

Time (CDT) Temp. Dew Point Humidity Pressure Visibility Wind Dir Wind Speed Gust Speed Precip Events Conditions
12:13 AM 60.8 °F 51.8 °F 72% 30.18 in 10.0 mi Calm Calm - N/A   Clear
12:34 AM 60.8 °F 51.8 °F 72% 30.18 in 5.0 mi Calm Calm - N/A   Haze
12:53 AM 60.8 °F 51.8 °F 72% 30.18 in 10.0 mi Calm Calm - N/A   Clear
1:14 AM 60.8 °F 51.8 °F 72% 30.18 in 10.0 mi Calm Calm - N/A   Clear
1:33 AM 59.0 °F 51.8 °F 77% 30.19 in 10.0 mi Calm Calm - N/A   Clear
1:53 AM 59.0 °F 50.0 °F 72% 30.19 in 10.0 mi Calm Calm - N/A   Clear
2:14 AM 59.0 °F 50.0 °F 72% 30.19 in 10.0 mi Calm Calm - N/A   Clear
2:33 AM 59.0 °F 50.0 °F 72% 30.19 in 10.0 mi Calm Calm - N/A   Clear
2:54 AM 59.0 °F 50.0 °F 72% 30.19 in 10.0 mi North 3.5 mph - N/A   Clear
3:14 AM 59.0 °F 50.0 °F 72% 30.19 in 10.0 mi Calm Calm - N/A   Clear
3:33 AM 57.2 °F 50.0 °F 77% 30.19 in 10.0 mi NNW 3.5 mph - N/A   Clear
3:54 AM 57.2 °F 50.0 °F 77% 30.20 in 10.0 mi Calm Calm - N/A   Clear
4:14 AM 57.2 °F 50.0 °F 77% 30.20 in 10.0 mi Calm Calm - N/A   Clear
4:33 AM 59.0 °F 50.0 °F 72% 30.20 in 10.0 mi Calm Calm - N/A   Clear
4:54 AM 57.2 °F 50.0 °F 77% 30.20 in 10.0 mi Calm Calm - N/A   Clear
5:13 AM 57.2 °F 50.0 °F 77% 30.21 in 10.0 mi Calm Calm - N/A   Clear
5:33 AM 57.2 °F 50.0 °F 77% 30.21 in 7.0 mi Calm Calm - N/A   Clear
5:54 AM 55.4 °F 50.0 °F 82% 30.21 in 10.0 mi Calm Calm - N/A   Clear
6:13 AM 59.0 °F 50.0 °F 72% 30.22 in 10.0 mi Calm Calm - N/A   Clear
6:34 AM 57.2 °F 50.0 °F 77% 30.22 in 10.0 mi Calm Calm - N/A   Clear
6:54 AM 59.0 °F 51.8 °F 77% 30.23 in 7.0 mi Calm Calm - N/A   Clear
7:13 AM 60.8 °F 51.8 °F 72% 30.23 in 10.0 mi Calm Calm - N/A   Clear
7:34 AM 62.6 °F 51.8 °F 68% 30.23 in 10.0 mi Calm Calm - N/A   Clear
7:54 AM 64.4 °F 51.8 °F 64% 30.23 in 10.0 mi Calm Calm - N/A   Clear
8:13 AM 68.0 °F 53.6 °F 60% 30.23 in 10.0 mi Calm Calm - N/A   Clear
8:34 AM 69.8 °F 55.4 °F 60% 30.23 in 10.0 mi Calm Calm - N/A   Clear
8:54 AM 71.6 °F 51.8 °F 50% 30.24 in 10.0 mi NNE 5.8 mph - N/A   Clear
9:13 AM 73.4 °F 51.8 °F 47% 30.24 in 10.0 mi NNE 4.6 mph - N/A   Clear
9:34 AM 75.2 °F 53.6 °F 47% 30.24 in 10.0 mi NNE 6.9 mph - N/A   Clear
9:54 AM 77.0 °F 51.8 °F 41% 30.23 in 10.0 mi NE 9.2 mph - N/A   Clear
10:13 AM 77.0 °F 53.6 °F 44% 30.23 in 10.0 mi NNE 8.1 mph - N/A   Clear
10:34 AM 78.8 °F 51.8 °F 39% 30.23 in 10.0 mi NE 8.1 mph - N/A   Clear
10:54 AM 78.8 °F 51.8 °F 39% 30.23 in 10.0 mi NE 4.6 mph - N/A   Clear
11:13 AM 78.8 °F 50.0 °F 36% 30.23 in 10.0 mi NNE 4.6 mph - N/A   Clear
11:34 AM 80.6 °F 50.0 °F 34% 30.23 in 10.0 mi NNE 6.9 mph - N/A   Scattered Clouds
11:54 AM 80.6 °F 50.0 °F 34% 30.23 in 10.0 mi NNE 8.1 mph - N/A   Scattered Clouds
12:13 PM 80.6 °F 46.4 °F 30% 30.23 in 10.0 mi NNE 5.8 mph - N/A   Scattered Clouds
12:34 PM 78.8 °F 46.4 °F 32% 30.23 in 10.0 mi ENE 5.8 mph - N/A   Scattered Clouds
12:54 PM 80.6 °F 46.4 °F 30% 30.22 in 10.0 mi ENE 6.9 mph - N/A   Scattered Clouds
1:13 PM 82.4 °F 46.4 °F 28% 30.22 in 10.0 mi North 8.1 mph - N/A   Mostly Cloudy
1:34 PM 80.6 °F 46.4 °F 30% 30.22 in 10.0 mi North 8.1 mph - N/A   Mostly Cloudy
1:54 PM 82.4 °F 46.4 °F 28% 30.21 in 10.0 mi NE 9.2 mph - N/A   Scattered Clouds
2:13 PM 82.4 °F 44.6 °F 26% 30.21 in 10.0 mi ENE 4.6 mph - N/A   Clear
2:34 PM 82.4 °F 46.4 °F 28% 30.21 in 10.0 mi NE 4.6 mph - N/A   Clear
2:54 PM 82.4 °F 44.6 °F 26% 30.20 in 10.0 mi ENE 4.6 mph - N/A   Scattered Clouds
3:13 PM 82.4 °F 46.4 °F 28% 30.20 in 10.0 mi North 6.9 mph - N/A   Scattered Clouds
3:34 PM 82.4 °F 46.4 °F 28% 30.19 in 10.0 mi ENE 6.9 mph - N/A   Mostly Cloudy
3:53 PM 80.6 °F 46.4 °F 30% 30.19 in 10.0 mi NE 6.9 mph - N/A   Mostly Cloudy
4:13 PM 80.6 °F 46.4 °F 30% 30.19 in 10.0 mi Calm Calm - N/A   Scattered Clouds
4:34 PM 82.4 °F 44.6 °F 26% 30.18 in 10.0 mi NNE 6.9 mph - N/A   Scattered Clouds
4:53 PM 80.6 °F 44.6 °F 28% 30.18 in 10.0 mi NE 5.8 mph - N/A   Overcast
5:14 PM 80.6 °F 46.4 °F 30% 30.18 in 10.0 mi NNE 4.6 mph - N/A   Mostly Cloudy
5:33 PM 82.4 °F 46.4 °F 28% 30.18 in 10.0 mi ENE 5.8 mph - N/A   Scattered Clouds
5:53 PM 82.4 °F 42.8 °F 25% 30.18 in 10.0 mi North 4.6 mph - N/A   Clear
6:14 PM 82.4 °F 42.8 °F 25% 30.17 in 10.0 mi Calm Calm - N/A   Scattered Clouds
6:33 PM 82.4 °F 44.6 °F 26% 30.17 in 10.0 mi NE 6.9 mph - N/A   Mostly Cloudy
6:53 PM 82.4 °F 46.4 °F 28% 30.17 in 10.0 mi NE 6.9 mph - N/A   Mostly Cloudy
7:13 PM 78.8 °F 48.2 °F 34% 30.17 in 10.0 mi NNE 4.6 mph - N/A   Scattered Clouds
7:33 PM 78.8 °F 48.2 °F 34% 30.17 in 10.0 mi Calm Calm - N/A   Clear
7:54 PM 78.8 °F 50.0 °F 36% 30.17 in 10.0 mi Calm Calm - N/A   Clear
8:14 PM 78.8 °F 51.8 °F 39% 30.17 in 10.0 mi NNE 3.5 mph - N/A   Clear
8:33 PM 77.0 °F 51.8 °F 41% 30.17 in 10.0 mi Calm Calm - N/A   Clear
8:54 PM 75.2 °F 53.6 °F 47% 30.17 in 7.0 mi Calm Calm - N/A   Clear
9:14 PM 71.6 °F 55.4 °F 57% 30.17 in 10.0 mi Calm Calm - N/A   Clear
9:33 PM 69.8 °F 55.4 °F 60% 30.17 in 10.0 mi Calm Calm - N/A   Clear
9:54 PM 69.8 °F 53.6 °F 56% 30.17 in 7.0 mi Calm Calm - N/A   Clear
10:14 PM 68.0 °F 53.6 °F 60% 30.17 in 10.0 mi Calm Calm - N/A   Clear
10:33 PM 68.0 °F 53.6 °F 60% 30.18 in 10.0 mi NNW 3.5 mph - N/A   Clear
10:54 PM 68.0 °F 55.4 °F 64% 30.17 in 10.0 mi Calm Calm - N/A   Clear
11:13 PM 64.4 °F 53.6 °F 68% 30.17 in 10.0 mi Calm Calm - N/A   Clear
11:34 PM 64.4 °F 53.6 °F 68% 30.17 in 10.0 mi Calm Calm - N/A   Clear
11:54 PM 64.4 °F 53.6 °F 68% 30.17 in 10.0 mi Calm Calm - N/A   Clear